Thermopolis, WY

11:18 AM MDT on April 24, 2017 (GMT -0600)
Thermopolis

Weather History for KTBX - October, 2012

Change the Weather History Date:

Wednesday, October 3, 2012

  Actual Average (KRIW) Record (KRIW)
Temperature  
Mean Temperature 42 °F -  
Max Temperature 59 °F 68 °F 82 °F (2010)
Min Temperature 26 °F 33 °F 25 °F (2009)
Degree Days  
Heating Degree Days 22    
Moisture  
Dew Point 25 °F    
Average Humidity 70    
Maximum Humidity 100    
Minimum Humidity 17    
Precipitation  
Precipitation 0.00 in - - ()
Sea Level Pressure  
Sea Level Pressure 30.17 in    
Wind  
Wind Speed 29 mph ()    
Max Wind Speed 59 mph    
Max Gust Speed 64 mph    
Visibility 8.8 miles    
Events Snow    
Averages and records for this station are not official NWS values.
T = Trace of Precipitation, MM = Missing Value Source: Averaged Metar Reports

Daily Weather History Graph

Daily Weather History Graph

Search for Another Location

Airport or City:

Trip Planner

Search our weather history database for the weather conditions in past years. The results will help you decide how hot, cold, wet, or windy it might be!

Date:

Astronomy

Oct. 03, 2012 Rise Set
Actual Time 7:13 AM MDT 6:49 PM MDT
Civil Twilight 6:44 AM MDT 7:17 PM MDT
Nautical Twilight 6:11 AM MDT 7:51 PM MDT
Astronomical Twilight 5:38 AM MDT 8:24 PM MDT
Moon 8:36 PM MDT (10/3) 10:46 AM MDT (10/3)
Length of Visible Light 12h 33m
Length of Day
11h 36m
Waning Gibbous, 88% of the Moon is Illuminated
Oct 3
Waning Gibbous
Oct 8
Last Quarter
Oct 15
New
Oct 21
First Quarter
Oct 29
Full

Hourly Weather History & Observations

Time (MDT) Temp. Windchill Dew Point Humidity Pressure Visibility Wind Dir Wind Speed Gust Speed Precip Events Conditions
12:15 AM 59.0 °F - 14.0 °F 17% 30.04 in 10.0 mi SW 23.0 mph 27.6 mph N/A   Clear
12:35 AM 59.0 °F - 14.0 °F 17% 30.04 in 10.0 mi WSW 24.2 mph 28.8 mph N/A   Clear
12:55 AM 59.0 °F - 15.8 °F 19% 30.03 in 10.0 mi SW 24.2 mph 29.9 mph N/A   Clear
1:15 AM 59.0 °F - 15.8 °F 19% 30.03 in 10.0 mi SW 20.7 mph - N/A   Clear
1:35 AM 57.2 °F - 15.8 °F 20% 30.03 in 10.0 mi SW 19.6 mph - N/A   Clear
1:55 AM 57.2 °F - 15.8 °F 20% 30.03 in 10.0 mi SW 23.0 mph 28.8 mph N/A   Clear
2:15 AM 55.4 °F - 15.8 °F 21% 30.02 in 10.0 mi SW 28.8 mph 35.7 mph N/A   Clear
2:35 AM 55.4 °F - 17.6 °F 23% 30.02 in 10.0 mi SSW 25.3 mph 42.6 mph N/A   Clear
2:55 AM 55.4 °F - 17.6 °F 23% 30.01 in 10.0 mi SSW 28.8 mph 38.0 mph N/A   Clear
3:15 AM 55.4 °F - 15.8 °F 21% 30.01 in 10.0 mi SSW 27.6 mph 33.4 mph N/A   Clear
3:35 AM 53.6 °F - 14.0 °F 21% 30.01 in 10.0 mi SSW 26.5 mph 33.4 mph N/A   Clear
3:55 AM 53.6 °F - 14.0 °F 21% 30.00 in 10.0 mi SW 20.7 mph 27.6 mph N/A   Clear
4:15 AM 53.6 °F - 14.0 °F 21% 30.00 in 10.0 mi SW 21.9 mph 26.5 mph N/A   Clear
4:35 AM 53.6 °F - 14.0 °F 21% 30.00 in 10.0 mi SSW 20.7 mph 28.8 mph N/A   Clear
4:55 AM 53.6 °F - 14.0 °F 21% 30.01 in 10.0 mi SW 15.0 mph - N/A   Clear
5:15 AM 48.2 °F - 19.4 °F 32% 30.02 in 10.0 mi NNW 5.8 mph - N/A   Clear
5:35 AM 46.4 °F 40.4 °F 23.0 °F 40% 30.02 in 10.0 mi North 13.8 mph - N/A   Clear
5:55 AM 44.6 °F 39.7 °F 26.6 °F 49% 30.02 in 10.0 mi NNW 9.2 mph 17.3 mph N/A   Clear
6:15 AM 44.6 °F 38.4 °F 28.4 °F 53% 30.02 in 10.0 mi North 12.7 mph - N/A   Clear
6:35 AM 42.8 °F 35.4 °F 28.4 °F 57% 30.02 in 10.0 mi North 15.0 mph - N/A   Clear
6:55 AM 41.0 °F 32.2 °F 30.2 °F 65% 30.02 in 10.0 mi North 18.4 mph - N/A   Clear
7:15 AM 39.2 °F 29.0 °F 30.2 °F 70% 30.02 in 10.0 mi NNW 21.9 mph - N/A   Clear
7:35 AM 35.6 °F 23.4 °F 30.2 °F 81% 30.02 in 10.0 mi NNW 25.3 mph - N/A   Clear
7:55 AM 35.6 °F 23.4 °F 30.2 °F 81% 30.03 in 10.0 mi NNW 25.3 mph - N/A   Clear
8:15 AM 35.6 °F 23.4 °F 32.0 °F 87% 30.04 in 10.0 mi NNW 25.3 mph - N/A   Clear
8:35 AM 33.8 °F 20.5 °F 32.0 °F 93% 30.04 in 10.0 mi NNW 27.6 mph - N/A   Clear
8:55 AM 33.8 °F 20.8 °F 32.0 °F 93% 30.05 in 10.0 mi NNW 26.5 mph - N/A   Clear
9:15 AM 33.8 °F 19.6 °F 32.0 °F 93% 30.05 in 10.0 mi NW 32.2 mph 35.7 mph N/A   Mostly Cloudy
9:55 AM 32.0 °F 16.0 °F 32.0 °F 100% 30.08 in 0.2 mi NW 39.1 mph - N/A Snow Snow
10:15 AM 32.0 °F 15.1 °F 32.0 °F 100% 30.08 in 0.2 mi NW 44.9 mph 48.3 mph N/A Snow Heavy Snow
10:35 AM 32.0 °F 15.1 °F 32.0 °F 100% 30.08 in 0.2 mi NW 44.9 mph 50.6 mph N/A Snow Snow
10:55 AM 32.0 °F 14.6 °F 32.0 °F 100% 30.09 in 10.0 mi NW 48.3 mph 54.1 mph N/A   Overcast
11:15 AM 32.0 °F 13.9 °F 32.0 °F 100% 30.09 in 10.0 mi NW 54.1 mph 59.8 mph N/A   Overcast
11:35 AM 32.0 °F 14.4 °F 30.2 °F 93% 30.12 in 10.0 mi NW 49.5 mph - N/A   Overcast
11:55 AM 32.0 °F 13.9 °F 30.2 °F 93% 30.11 in 10.0 mi NW 54.1 mph 59.8 mph N/A   Overcast
12:15 PM 32.0 °F 13.6 °F 28.4 °F 87% 30.12 in 10.0 mi NW 56.4 mph 63.3 mph N/A   Overcast
12:35 PM 32.0 °F 13.3 °F 28.4 °F 87% 30.12 in 10.0 mi NW 58.7 mph 64.4 mph N/A   Overcast
1:15 PM 32.0 °F 13.9 °F 26.6 °F 80% 30.16 in 10.0 mi NW 54.1 mph - N/A   Overcast
1:35 PM 32.0 °F 13.4 °F 26.6 °F 80% 30.16 in 10.0 mi NW 57.5 mph 63.3 mph N/A   Overcast
1:55 PM 32.0 °F 13.9 °F 26.6 °F 80% 30.18 in 10.0 mi NW 54.1 mph 63.3 mph N/A   Overcast
2:15 PM 32.0 °F 13.6 °F 26.6 °F 80% 30.18 in 10.0 mi NW 56.4 mph 59.8 mph N/A   Overcast
2:35 PM 32.0 °F 14.1 °F 26.6 °F 80% 30.20 in 10.0 mi NW 51.8 mph 58.7 mph N/A   Overcast
2:55 PM 32.0 °F 13.4 °F 24.8 °F 75% 30.20 in 10.0 mi NW 57.5 mph 64.4 mph N/A   Overcast
3:15 PM 32.0 °F 14.3 °F 24.8 °F 75% 30.23 in 10.0 mi NW 50.6 mph 62.1 mph N/A   Mostly Cloudy
3:35 PM 32.0 °F 14.1 °F 26.6 °F 80% 30.24 in 3.0 mi NW 51.8 mph 57.5 mph N/A Snow Light Snow
3:55 PM 30.2 °F 11.7 °F 26.6 °F 86% 30.26 in 2.0 mi WNW 50.6 mph 55.2 mph N/A Snow Light Snow
4:15 PM 28.4 °F 9.5 °F 28.4 °F 100% 30.27 in 1.2 mi NW 48.3 mph 55.2 mph N/A Snow Light Snow
4:35 PM 28.4 °F 9.8 °F 28.4 °F 100% 30.28 in 0.2 mi NW 46.0 mph - N/A Snow Light Snow
4:55 PM 28.4 °F 10.0 °F 28.4 °F 100% 30.30 in 0.2 mi NW 44.9 mph - N/A Snow Heavy Snow
5:15 PM 28.4 °F 10.0 °F 28.4 °F 100% 30.30 in 0.2 mi NW 44.9 mph - N/A Snow Light Snow
5:35 PM 30.2 °F 12.4 °F 26.6 °F 86% 30.32 in 10.0 mi NW 46.0 mph 50.6 mph N/A   Overcast
5:55 PM 30.2 °F 12.5 °F 26.6 °F 86% 30.32 in 10.0 mi NW 44.9 mph - N/A   Overcast
6:15 PM 30.2 °F 12.4 °F 26.6 °F 86% 30.34 in 10.0 mi NW 46.0 mph 51.8 mph N/A   Overcast
6:35 PM 30.2 °F 12.5 °F 24.8 °F 80% 30.34 in 10.0 mi NW 44.9 mph - N/A   Overcast
6:55 PM 30.2 °F 12.7 °F 24.8 °F 80% 30.36 in 10.0 mi NW 43.7 mph 49.5 mph N/A   Overcast
7:15 PM 30.2 °F 12.9 °F 24.8 °F 80% 30.36 in 10.0 mi NW 42.6 mph - N/A   Overcast
7:35 PM 28.4 °F 11.2 °F 24.8 °F 86% 30.37 in 10.0 mi NW 38.0 mph - N/A   Overcast
7:55 PM 28.4 °F 11.0 °F 26.6 °F 93% 30.38 in 10.0 mi NW 39.1 mph - N/A   Overcast
8:15 PM 28.4 °F 10.8 °F 26.6 °F 93% 30.38 in 10.0 mi NW 40.3 mph - N/A   Overcast
8:35 PM 28.4 °F 11.0 °F 24.8 °F 86% 30.38 in 10.0 mi NW 39.1 mph - N/A   Overcast
8:55 PM 28.4 °F 10.8 °F 24.8 °F 86% 30.38 in 10.0 mi NW 40.3 mph - N/A   Overcast
9:15 PM 28.4 °F 11.0 °F 24.8 °F 86% 30.38 in 10.0 mi NW 39.1 mph - N/A   Overcast
9:35 PM 28.4 °F 11.4 °F 24.8 °F 86% 30.40 in 10.0 mi NW 36.8 mph - N/A   Overcast
10:15 PM 26.6 °F 8.9 °F 24.8 °F 93% 30.39 in 10.0 mi NW 36.8 mph - N/A   Overcast
10:35 PM 26.6 °F 9.6 °F 24.8 °F 93% 30.41 in 10.0 mi NW 33.4 mph - N/A   Overcast
10:55 PM 26.6 °F 10.6 °F 24.8 °F 93% 30.41 in 10.0 mi NW 28.8 mph - N/A   Overcast
11:15 PM 26.6 °F 10.6 °F 24.8 °F 93% 30.41 in 10.0 mi NW 28.8 mph - N/A   Overcast
11:35 PM 26.6 °F 10.6 °F 24.8 °F 93% 30.41 in 10.0 mi NW 28.8 mph - N/A   Overcast
11:55 PM 26.6 °F 10.3 °F 26.6 °F 100% 30.41 in 10.0 mi NW 29.9 mph - N/A   Overcast